Location: Gleizolles
(44.4833°N, 6.7667°E)
Time: 22:29:33
(UTC+00:00)

Vanguard 3 - Visible Passes

Search period start: 23 June 2024 00:00
Search period end: 03 July 2024 00:00
Orbit: 509 x 3231 km, 33.3° (Epoch: 22 June)

Date Brightness Start Highest point End Pass type
(mag) Time Alt. Az. Time Alt. Az. Time Alt. Az.
29 Jun 11.3 02:48:27 10° SSE 02:54:21 12° SE 02:59:42 10° ESE visible
01 Jul 11.2 02:19:52 10° SSE 02:28:29 15° SE 02:36:12 10° ESE visible
02 Jul 10.9 03:08:12 10° SSW 03:22:08 26° SSE 03:33:24 10° E visible
